Simultaneous Nadir Overpasses (SNOs) Predictions

Prediction of SNOs between GOES-14 and NPP Satellite Orbit:

Table of predicted SNOs for the next 14.0 days since TLE Epoch: 12/5/2020
Index Date Time (GOES-14) GOES-14 Lat,Lon NPP Lat,Lon Distance(km) Time Diff (sec)
1 12/05/2020 08:26:10 -0.03,-104.37 0.09,-104.99 70.64 80
2 12/06/2020 08:04:43 -0.02,-104.36 -0.86,-100.44 445.30 80
3 12/07/2020 20:26:38 0.04,-104.11 -0.32,-105.75 185.92 80
4 12/08/2020 20:10:33 0.03,-104.12 0.69,-101.21 331.32 80
5 12/10/2020 08:32:20 -0.05,-104.37 0.43,-106.49 242.16 80
6 12/11/2020 08:10:55 -0.04,-104.36 -0.59,-101.96 273.97 80
7 12/12/2020 20:32:49 0.05,-104.09 -0.65,-107.25 359.33 80
8 12/13/2020 20:16:44 0.04,-104.09 0.36,-102.71 157.72 80
9 12/15/2020 08:38:31 -0.06,-104.36 0.75,-107.99 414.11 80
10 12/16/2020 08:17:05 -0.04,-104.35 -0.26,-103.46 101.94 80
11 12/18/2020 20:20:14 0.05,-104.07 0.05,-104.21 16.21 80
